This is the latest recevied weather packets stored in our database for station/object W7PLC. If no packets are shown the sender has not sent any weather packets the latest 1 day(s).
| Time | Temp. | Humidity | Pressure | Rain* | Wind** | Luminosity | Snow |
|---|---|---|---|---|---|---|---|
| 1778015985 | 16.67° C | 79% | 1014.7 hPa | 0 mm | 0 m/s | 104 W/m² | - |
| 1778015683 | 16.11° C | 80% | 1014.9 hPa | 0 mm | 0 m/s | 94 W/m² | - |
| 1778015379 | 16.67° C | 79% | 1014.8 hPa | 0 mm | 0.45 m/s, 60° | 87 W/m² | - |
| 1778015077 | 16.11° C | 80% | 1014.9 hPa | 0 mm | 0.45 m/s, 11° | 85 W/m² | - |
| 1778014773 | 16.11° C | 79% | 1015 hPa | 0 mm | 0 m/s | 86 W/m² | - |
| 1778014472 | 16.11° C | 78% | 1014.8 hPa | 0 mm | 0 m/s | 85 W/m² | - |
| 1778014168 | 16.11° C | 79% | 1014.9 hPa | 0 mm | 0 m/s | 84 W/m² | - |
| 1778013866 | 16.11° C | 79% | 1014.9 hPa | 0 mm | 0 m/s | 85 W/m² | - |
| 1778013563 | 16.11° C | 79% | 1015 hPa | 0 mm | 0 m/s | 88 W/m² | - |
| 1778013259 | 16.11° C | 80% | 1014.8 hPa | 0 mm | 0 m/s | 89 W/m² | - |
| 1778012956 | 16.67° C | 78% | 1015 hPa | 0 mm | 0 m/s | 90 W/m² | - |
| 1778012652 | 16.11° C | 79% | 1014.9 hPa | 0 mm | 0 m/s | 92 W/m² | - |
| 1778012349 | 16.11° C | 79% | 1015.1 hPa | 0 mm | 0 m/s | 96 W/m² | - |
| 1778012046 | 16.11° C | 80% | 1014.9 hPa | 0 mm | 0 m/s | 95 W/m² | - |
| 1778011744 | 15.56° C | 80% | 1014.7 hPa | 0 mm | 0 m/s | 90 W/m² | - |
| 1778011441 | 16.11° C | 80% | 1014.7 hPa | 0 mm | 0 m/s | 92 W/m² | - |
| 1778011136 | 16.11° C | 80% | 1015 hPa | 0 mm | 0 m/s | 83 W/m² | - |
| 1778010834 | 16.11° C | 81% | 1014.9 hPa | 0 mm | 0 m/s | 85 W/m² | - |
| 1778010531 | 15.56° C | 81% | 1014.9 hPa | 0 mm | 0 m/s | 81 W/m² | - |
| 1778010229 | 15.56° C | 81% | 1015.2 hPa | 0 mm | 0 m/s | 82 W/m² | - |
| 1778009929 | 15.56° C | 82% | 1015.1 hPa | 0 mm | 0 m/s | 81 W/m² | - |
| 1778009627 | 15.56° C | 82% | 1014.9 hPa | 0 mm | 0 m/s | 84 W/m² | - |
| 1778009324 | 15° C | 82% | 1015.2 hPa | 0 mm | 0 m/s | 81 W/m² | - |
| 1778009023 | 15° C | 83% | 1014.9 hPa | 0 mm | 0 m/s | 79 W/m² | - |
| 1778008720 | 15° C | 83% | 1014.8 hPa | 0 mm | 0 m/s | 78 W/m² | - |
* Rain latest hour (hover to see other rain measurements)
** Current wind speed in m/s (hover to see current wind gust speed)